Location: Aranbee
(34.0885°N, 118.2342°W)
Time: 23:20:53
(UTC+00:00)

S-56A Canister/Altair - Visible Passes

Search period start: 29 July 2021 00:00
Search period end: 08 August 2021 00:00
Orbit: 631 x 2501 km, 38.9° (Epoch: 29 July)

Date Brightness Start Highest point End Pass type
(mag) Time Alt. Az. Time Alt. Az. Time Alt. Az.
29 Jul 10.0 03:14:43 10° WNW 03:29:58 77° NNE 03:41:38 10° E visible
29 Jul 9.3 05:22:41 10° WNW 05:36:17 65° SW 05:39:42 46° SSE visible
29 Jul 10.7 07:32:24 10° W 07:37:06 18° WSW 07:37:06 18° WSW visible
30 Jul 9.5 04:48:49 10° WNW 05:03:05 71° SSW 05:08:30 36° SE visible
30 Jul 10.4 06:57:56 10° W 07:05:53 24° WSW 07:05:53 24° WSW visible
31 Jul 9.7 04:15:00 10° WNW 04:29:46 77° SSW 04:37:19 26° SE visible
31 Jul 10.1 06:23:40 10° WNW 06:34:11 30° SW 06:34:43 30° SW visible
01 Aug 9.8 03:41:13 10° WNW 03:56:21 83° SSW 04:06:11 17° ESE visible
01 Aug 10.0 05:49:32 10° WNW 06:01:16 36° SW 06:03:36 33° SSW visible
02 Aug 9.9 03:07:29 10° WNW 03:22:51 87° SSW 03:35:01 10° ESE visible
02 Aug 10.0 05:15:29 10° WNW 05:28:17 42° SW 05:32:31 32° S visible
03 Aug 10.1 04:41:32 10° WNW 04:55:10 48° SW 05:01:28 27° SSE visible
03 Aug 11.0 06:54:45 10° WSW 06:58:21 12° WSW 06:58:53 12° SW visible
04 Aug 10.1 04:07:40 10° WNW 04:21:56 54° SW 04:30:29 20° SSE visible
04 Aug 10.9 06:18:49 10° W 06:25:33 16° SW 06:27:54 15° SW visible
05 Aug 10.2 03:33:53 10° WNW 03:48:36 60° SW 03:59:33 13° SE visible
05 Aug 10.8 05:43:51 10° W 05:52:41 20° SW 05:56:58 16° SSW visible
06 Aug 10.2 03:00:11 10° WNW 03:15:11 66° SW 03:27:44 10° SE visible
06 Aug 10.7 05:09:18 10° W 05:19:44 25° SW 05:26:05 16° SSW visible
07 Aug 10.8 04:35:01 10° W 04:46:41 29° SW 04:55:16 13° S visible
